CW6888 Weather Reports


time (UTC)temp
F
wind
direction
speed
knots
gust
knots
rain 1hr
in
rain 24hr
in
rain mn
in
humidity
%
barometer
mb
20260504045817 44 242 0.0 0.0 0.00 0.00 0.00 68 1016.0
20260504044828 44 242 0.0 0.0 0.00 0.00 0.00 67 1015.9
20260504043819 43 242 0.0 0.0 0.00 0.00 0.00 70 1015.9
20260504042830 43 242 0.0 0.0 0.00 0.00 0.00 71 1015.8
20260504041822 44 242 0.0 0.0 0.00 0.00 0.00 69 1015.9
20260504040814 44 242 0.0 0.0 0.00 0.00 0.00 68 1015.8
20260504035816 45 242 0.0 0.0 0.00 0.00 0.00 67 1015.7
20260504034827 45 242 0.0 0.0 0.00 0.00 0.00 67 1015.6
20260504033819 45 242 0.0 0.0 0.00 0.00 0.00 66 1015.6
20260504032830 46 242 0.0 0.0 0.00 0.00 0.00 64 1015.5
20260504031841 46 242 0.0 0.0 0.00 0.00 0.00 66 1015.4
20260504030852 47 242 0.0 0.0 0.00 0.00 0.00 65 1015.3
20260504025816 47 242 0.0 0.0 0.00 0.00 0.00 62 1015.3
20260504024827 48 242 0.0 0.0 0.00 0.00 0.00 60 1015.3
20260504023836 49 242 0.0 0.0 0.00 0.00 0.00 58 1015.3
20260504022827 49 242 0.0 0.0 0.00 0.00 0.00 56 1015.2
20260504021819 50 242 0.0 0.0 0.00 0.00 0.00 55 1015.3
20260504020814 50 242 0.0 0.0 0.00 0.00 0.00 55 1015.3
20260504015819 51 242 0.0 0.0 0.00 0.00 0.00 52 1015.2
20260504014831 51 242 0.0 0.0 0.00 0.00 0.00 52 1015.2
20260504013822 51 242 0.0 0.0 0.00 0.00 0.00 52 1015.2
20260504012836 51 242 0.0 0.0 0.00 0.00 0.00 51 1015.1
20260504011830 52 242 0.0 0.0 0.00 0.00 0.00 51 1014.9
20260504010842 52 242 0.0 0.0 0.00 0.00 0.00 52 1014.8
20260504005827 52 242 0.0 0.0 0.00 0.00 0.00 51 1014.8
20260504004818 53 242 0.0 0.0 0.00 0.00 0.00 50 1014.8
20260504003831 53 242 0.0 0.0 0.00 0.00 0.00 48 1014.7
20260504002814 54 242 0.0 0.0 0.00 0.00 0.00 48 1014.5
20260504001838 55 242 0.0 0.0 0.00 0.00 0.00 47 1014.4
20260504000828 55 242 0.0 0.0 0.00 0.00 0.00 46 1014.4
20260503235834 56 242 0.0 3.5 0.00 0.00 0.00 44 1014.3
20260503234827 56 360 0.0 2.6 0.00 0.00 0.00 44 1014.3
20260503233838 57 65 0.0 0.0 0.00 0.00 0.00 43 1014.1
20260503232822 57 65 0.0 3.5 0.00 0.00 0.00 41 1013.9
20260503231814 58 33 1.7 5.2 0.00 0.00 0.00 41 1013.9
20260503230824 58 47 2.6 5.2 0.00 0.00 0.00 41 1013.9
20260503225852 59 13 1.7 4.3 0.00 0.00 0.00 42 1014.0
20260503224813 59 169 2.6 6.1 0.00 0.00 0.00 42 1014.0
20260503223837 59 105 1.7 7.0 0.00 0.00 0.00 39 1014.0
20260503222818 59 350 1.7 7.0 0.00 0.00 0.00 41 1014.0
20260503221831 59 355 3.5 10.4 0.00 0.00 0.00 40 1014.0
20260503220823 60 130 2.6 8.7 0.00 0.00 0.00 38 1014.0
20260503215829 60 65 2.6 7.8 0.00 0.00 0.00 40 1014.1
20260503214822 60 13 2.6 10.4 0.00 0.00 0.00 41 1014.0
20260503213813 59 22 4.3 11.3 0.00 0.00 0.00 39 1014.0
20260503212827 59 46 5.2 11.3 0.00 0.00 0.00 41 1013.8
20260503211819 58 74 4.3 14.8 0.00 0.00 0.00 40 1013.8
20260503210831 58 11 4.3 13.9 0.00 0.00 0.00 39 1013.9
20260503205822 59 40 5.2 13.9 0.00 0.00 0.00 40 1014.0
20260503204837 59 24 4.3 12.2 0.00 0.00 0.00 40 1013.8
20260503203819 59 5 5.2 11.3 0.00 0.00 0.00 39 1013.9
20260503202830 58 57 6.1 19.1 0.00 0.00 0.00 39 1013.9
20260503201822 58 28 7.8 14.8 0.00 0.00 0.00 38 1014.0
20260503200814 58 48 3.5 8.7 0.00 0.00 0.00 39 1014.2
20260503195820 58 141 4.3 7.8 0.00 0.00 0.00 39 1014.2
20260503194832 58 165 3.5 9.6 0.00 0.00 0.00 39 1014.5
20260503193823 58 34 3.5 10.4 0.00 0.00 0.00 41 1014.5
20260503192815 58 18 5.2 9.6 0.00 0.00 0.00 43 1014.6
20260503191847 58 126 2.6 11.3 0.00 0.00 0.00 43 1014.6
20260503190816 57 339 6.1 13.9 0.00 0.00 0.00 45 1014.7
20260503185815 56 360 7.0 16.5 0.00 0.00 0.00 41 1014.8
20260503184826 56 26 2.6 11.3 0.00 0.00 0.00 43 1014.9
20260503183815 56 69 4.3 12.2 0.00 0.00 0.00 42 1015.2
20260503182827 55 286 2.6 10.4 0.00 0.00 0.00 45 1015.1
20260503181821 55 17 6.1 15.6 0.00 0.00 0.00 44 1015.4
20260503180834 55 55 4.3 9.6 0.00 0.00 0.00 44 1015.2
20260503175837 55 51 2.6 7.8 0.00 0.00 0.00 48 1015.2
20260503174827 53 23 4.3 10.4 0.00 0.00 0.00 46 1015.3
20260503173820 53 55 3.5 12.2 0.00 0.00 0.00 45 1015.6
20260503172831 53 338 4.3 16.5 0.00 0.00 0.00 44 1015.6
20260503171814 53 33 7.0 13.9 0.00 0.00 0.00 46 1015.6
20260503170836 53 348 7.0 12.2 0.00 0.00 0.00 45 1015.7
20260503150817 48 66 3.5 13.0 0.00 0.00 0.00 52 1016.2
20260503130843 43 35 7.0 13.0 0.00 0.00 0.00 64 1016.3
20260503080821 41 34 1.7 4.3 0.00 0.00 0.00 73 1013.5
20260503072823 41 346 2.6 7.0 0.00 0.00 0.00 72 1013.3
20260503071859 41 329 4.3 7.8 0.00 0.00 0.00 72 1013.1
20260503070850 41 5 3.5 10.4 0.00 0.00 0.00 73 1013.1
20260503054828 41 34 2.6 6.1 0.00 0.01 0.00 76 1013.1
20260503053842 41 360 1.7 3.5 0.00 0.01 0.00 76 1013.2